User: anonymous   Login
Location: Unspecified
(0.0000°N, 0.0000°E)
Time: 00:22:23
(UTC+00:00)
Language:

GRACE-FO 1 - Orbit

View from above orbital plane
View from above orbital plane
View from above satellite
View from above satellite

Ground track
Ground track

The orbit data is extracted from the following two-line orbital elements,

1 43476U 18047A   19258.66328690 -.00000278  00000-0 -11485-4 0    04
2 43476  89.0039 174.8198 0015238 232.6239 214.8491 15.23908624 73222
Epoch (UTC): 15 September 2019 15:55:07
Eccentricity: 0.0015238
inclination: 89.0039°
perigee height: 483 km
apogee height: 504 km
right ascension of ascending node: 174.8198°
argument of perigee: 232.6239°
revolutions per day: 15.23908624
mean anomaly at epoch: 214.8491°
orbit number at epoch: 7322

The dashed part of the orbit path shows where the satellite is in the earth's shadow,  

DLR